TimeEST,TemperatureF,Dew PointF,Humidity,Sea Level PressureIn,VisibilityMPH,Wind Direction,Wind SpeedMPH,Gust SpeedMPH,PrecipitationIn,Events,Conditions,WindDirDegrees,DateUTC
12:53 AM,37.0,21.0,52,29.96,10.0,WNW,12.7,23.0,N/A,,Clear,290,2012-12-30 05:53:00
1:53 AM,37.0,21.0,52,29.99,10.0,WNW,11.5,19.6,N/A,,Partly Cloudy,300,2012-12-30 06:53:00
2:53 AM,37.9,19.9,48,30.02,10.0,West,6.9,16.1,N/A,,Overcast,280,2012-12-30 07:53:00
3:53 AM,37.0,18.0,46,30.04,10.0,WNW,13.8,23.0,N/A,,Mostly Cloudy,300,2012-12-30 08:53:00
4:53 AM,37.0,19.0,48,30.08,10.0,West,9.2,-,N/A,,Mostly Cloudy,280,2012-12-30 09:53:00
5:53 AM,36.0,17.1,46,30.11,10.0,NW,11.5,20.7,N/A,,Clear,310,2012-12-30 10:53:00
6:53 AM,35.1,18.0,50,30.16,10.0,WNW,12.7,18.4,N/A,,Clear,300,2012-12-30 11:53:00
7:53 AM,34.0,17.1,50,30.20,10.0,WNW,8.1,16.1,N/A,,Clear,300,2012-12-30 12:53:00
8:53 AM,36.0,17.1,46,30.25,10.0,WNW,12.7,-,N/A,,Clear,300,2012-12-30 13:53:00
9:53 AM,39.0,18.0,43,30.27,10.0,NNW,15.0,20.7,N/A,,Clear,330,2012-12-30 14:53:00
10:53 AM,41.0,18.0,40,30.30,10.0,NW,10.4,19.6,N/A,,Clear,320,2012-12-30 15:53:00
11:53 AM,43.0,18.0,37,30.28,10.0,NW,12.7,17.3,N/A,,Clear,320,2012-12-30 16:53:00
12:53 PM,44.1,17.1,34,30.27,10.0,NNW,12.7,-,N/A,,Clear,330,2012-12-30 17:53:00
1:53 PM,44.1,17.1,34,30.27,10.0,West,8.1,-,N/A,,Clear,280,2012-12-30 18:53:00
2:53 PM,46.0,17.1,31,30.28,10.0,WNW,11.5,19.6,N/A,,Clear,300,2012-12-30 19:53:00
3:53 PM,45.0,14.0,29,30.31,10.0,West,11.5,-,N/A,,Clear,280,2012-12-30 20:53:00
4:53 PM,42.1,15.1,34,30.30,10.0,NNW,4.6,-,N/A,,Clear,340,2012-12-30 21:53:00
5:53 PM,37.0,15.1,41,30.32,10.0,NNW,6.9,-,N/A,,Clear,330,2012-12-30 22:53:00
6:53 PM,32.0,16.0,52,30.35,10.0,SW,3.5,-,N/A,,Clear,230,2012-12-30 23:53:00
7:53 PM,36.0,16.0,44,30.37,10.0,WNW,6.9,-,N/A,,Clear,290,2012-12-31 00:53:00
8:53 PM,33.1,16.0,50,30.37,10.0,West,4.6,-,N/A,,Clear,270,2012-12-31 01:53:00
9:53 PM,34.0,16.0,48,30.36,10.0,WNW,5.8,-,N/A,,Clear,290,2012-12-31 02:53:00
10:53 PM,32.0,16.0,52,30.38,10.0,West,3.5,-,N/A,,Clear,280,2012-12-31 03:53:00
11:53 PM,27.0,17.1,66,30.37,10.0,WSW,4.6,-,N/A,,Clear,240,2012-12-31 04:53:00